IRIDIUM 31 [B]

Last updated on Dec. 10, 2018, 12:08 a.m. UTC

1 24950U 97051G   18343.77625763  .00131878 -11333-5  32952-4 0  9994
2 24950  86.4190  60.8301 0362837 340.0740  18.6644 15.56342719112157

Satellite is not in orbit.